Overview Statistics Trail Chart Weather Telemetry Raw packets
 

This is the latest recevied weather packets stored in our database for station/object N1ORT. If no packets are shown the sender has not sent any weather packets the latest 10 day(s).

<< 22 23 24 25 26 27 28 >>
Time Temp. Humidity Pressure Rain* Wind** Luminosity Snow
1788466845 23.33° C 85% 1010.7 hPa 0 mm - 131 W/m² -
1788466539 23.89° C 84% 1010.8 hPa 0 mm - 193 W/m² -
1788466239 24.44° C 83% 1010.8 hPa 0 mm - 409 W/m² -
1788465933 23.89° C 84% 1010.7 hPa 0 mm - 438 W/m² -
1788465629 23.89° C 84% 1010.7 hPa 0 mm - 491 W/m² -
1788465325 23.33° C 85% 1011 hPa 0 mm - 503 W/m² -
1788465020 23.33° C 86% 1011 hPa 0 mm - 505 W/m² -
1788464716 22.22° C 90% 1011.2 hPa 0 mm - 580 W/m² -
1788464411 21.67° C 91% 1011.3 hPa 0 mm - 234 W/m² -
1788464107 21.67° C 90% 1011.2 hPa 0 mm - 163 W/m² -
1788463801 21.67° C 90% 1011.1 hPa 0 mm - 212 W/m² -
1788463499 21.11° C 91% 1011.1 hPa 0 mm - 236 W/m² -
1788463193 22.22° C 90% 1011.4 hPa 0 mm - 240 W/m² -
1788462889 22.22° C 88% 1011.1 hPa 0 mm - 230 W/m² -
1788462588 22.78° C 87% 1011.1 hPa 0 mm - 549 W/m² -
1788462283 21.67° C 92% 1011.3 hPa 0 mm - 485 W/m² -
1788461977 21.11° C 93% 1011.4 hPa 0 mm - 249 W/m² -
1788461673 21.11° C 93% 1011.5 hPa 0 mm - 304 W/m² -
1788461367 21.11° C 92% 1011.7 hPa 0 mm - 205 W/m² -
1788461065 21.11° C 93% 1011.6 hPa 0 mm - 208 W/m² -
1788460764 21.11° C 94% 1011.5 hPa 0 mm - 201 W/m² -
1788460459 21.11° C 92% 1011.5 hPa 0 mm - 179 W/m² -
1788460158 21.11° C 91% 1011.6 hPa 0 mm - 221 W/m² -
1788459857 20.56° C 94% 1011.6 hPa 0 mm - 262 W/m² -
1788459553 20.56° C 94% 1011.8 hPa 0 mm - 237 W/m² -

* Rain latest hour (hover to see other rain measurements)
** Current wind speed in m/s (hover to see current wind gust speed)